Location: ??
(35.5090°N, 139.6783°E)
Time: 19:51:28
(UTC+00:00)

USA 281 - Pass Details

Date: 08 November 2025
Orbit: 1079 x 1080 km, 106.0° (Epoch: 27 November)

Event Time Altitude Azimuth Distance (km) Brightness Sun altitude
Exits shadow 08:47:09 19° 74° (ENE) 2,338 4.3 -14.0°
Maximum altitude 08:48:56 21° 53° (NE) 2,220 4.3 -14.4°
Drops below altitude 10° 08:53:34 10° 8° (N) 2,925 5.3 -15.3°
Sets 08:56:44 0° 353° (N) 3,884 6.1 -15.9°
